Time,TemperatureF,DewpointF,PressureIn,WindDirection,WindDirectionDegrees,WindSpeedMPH,WindSpeedGustMPH,Humidity,HourlyPrecipIn,Conditions,Clouds,dailyrainin,SoftwareType,DateUTC
2015-01-30 00:22:00,35.0,30.0,30.59,North,0,0.0,0.0,82,0.00,,,0.00,,2015-01-30 06:22:00,
2015-01-30 00:43:00,34.0,29.0,30.59,North,0,0.0,0.0,83,0.00,,,0.00,,2015-01-30 06:43:00,
2015-01-30 01:12:00,33.0,29.0,30.60,North,0,0.0,0.0,86,0.00,,,0.00,,2015-01-30 07:12:00,
2015-01-30 01:22:00,33.0,30.0,30.59,North,0,0.0,0.0,87,0.00,,,0.00,,2015-01-30 07:22:00,
2015-01-30 01:52:00,32.0,29.0,30.60,North,0,0.0,0.0,88,0.00,,,0.00,,2015-01-30 07:52:00,
2015-01-30 02:22:00,30.0,27.0,30.60,North,0,0.0,0.0,90,0.00,,,0.00,,2015-01-30 08:22:00,
2015-01-30 02:42:00,30.0,28.0,30.60,North,0,0.0,0.0,91,0.00,,,0.00,,2015-01-30 08:42:00,
2015-01-30 02:52:00,30.0,28.0,30.60,North,0,0.0,0.0,91,0.00,,,0.00,,2015-01-30 08:52:00,
2015-01-30 03:12:00,29.0,27.0,30.60,North,0,0.0,0.0,91,0.00,,,0.00,,2015-01-30 09:12:00,
2015-01-30 03:22:00,29.0,27.0,30.60,North,0,0.0,0.0,92,0.00,,,0.00,,2015-01-30 09:22:00,
2015-01-30 03:43:00,28.0,26.0,30.61,North,0,0.0,0.0,92,0.00,,,0.00,,2015-01-30 09:43:00,
2015-01-30 03:53:00,28.0,26.0,30.60,North,0,0.0,0.0,93,0.00,,,0.00,,2015-01-30 09:53:00,
2015-01-30 04:13:00,27.0,25.0,30.60,North,0,0.0,0.0,93,0.00,,,0.00,,2015-01-30 10:13:00,
2015-01-30 04:23:00,27.0,25.0,30.60,North,0,0.0,0.0,93,0.00,,,0.00,,2015-01-30 10:23:00,
2015-01-30 04:44:00,27.0,26.0,30.60,North,0,0.0,0.0,94,0.00,,,0.00,,2015-01-30 10:44:00,
2015-01-30 04:53:00,27.0,26.0,30.60,North,0,0.0,0.0,95,0.00,,,0.00,,2015-01-30 10:53:00,
2015-01-30 05:13:00,27.0,26.0,30.60,North,0,0.0,0.0,95,0.00,,,0.00,,2015-01-30 11:13:00,
2015-01-30 05:23:00,26.0,25.0,30.60,North,0,0.0,0.0,95,0.00,,,0.00,,2015-01-30 11:23:00,
2015-01-30 05:42:00,26.0,25.0,30.60,North,0,0.0,0.0,95,0.00,,,0.00,,2015-01-30 11:42:00,
2015-01-30 05:53:00,26.0,25.0,30.61,North,0,0.0,0.0,95,0.00,,,0.00,,2015-01-30 11:53:00,
2015-01-30 06:22:00,26.0,25.0,30.62,North,0,0.0,0.0,96,0.00,,,0.00,,2015-01-30 12:22:00,
2015-01-30 06:43:00,26.0,25.0,30.63,North,0,0.0,0.0,96,0.00,,,0.00,,2015-01-30 12:43:00,
2015-01-30 06:52:00,25.0,24.0,30.63,North,0,0.0,0.0,96,0.00,,,0.00,,2015-01-30 12:52:00,
2015-01-30 07:12:00,24.0,23.0,30.63,North,0,0.0,0.0,96,0.00,,,0.00,,2015-01-30 13:12:00,
2015-01-30 07:22:00,25.0,24.0,30.65,North,0,0.0,0.0,96,0.00,,,0.00,,2015-01-30 13:22:00,
2015-01-30 07:42:00,24.0,23.0,30.65,North,0,0.0,0.0,96,0.00,,,0.00,,2015-01-30 13:42:00,
2015-01-30 07:52:00,24.0,23.0,30.66,North,0,0.0,0.0,96,0.00,,,0.00,,2015-01-30 13:52:00,
2015-01-30 08:22:00,26.0,25.0,30.67,North,0,0.0,0.0,97,0.00,,,0.00,,2015-01-30 14:22:00,
2015-01-30 08:42:00,29.0,28.0,30.67,North,0,0.0,0.0,97,0.00,,,0.00,,2015-01-30 14:42:00,
2015-01-30 08:52:00,32.0,32.0,30.66,North,0,0.0,0.0,98,0.00,,,0.00,,2015-01-30 14:52:00,
2015-01-30 09:12:00,36.0,35.0,30.67,North,0,0.0,0.0,95,0.00,,,0.00,,2015-01-30 15:12:00,
2015-01-30 09:22:00,38.0,36.0,30.66,North,0,0.0,0.0,93,0.00,,,0.00,,2015-01-30 15:22:00,
2015-01-30 09:53:00,42.0,35.0,30.67,North,0,0.0,1.0,75,0.00,,,0.00,,2015-01-30 15:53:00,
2015-01-30 10:13:00,42.0,34.0,30.68,North,0,0.0,0.0,72,0.00,,,0.00,,2015-01-30 16:13:00,
2015-01-30 10:24:00,44.0,36.0,30.68,North,0,0.0,0.0,72,0.00,,,0.00,,2015-01-30 16:24:00,
2015-01-30 10:44:00,45.0,35.0,30.67,North,0,0.0,1.0,68,0.00,,,0.00,,2015-01-30 16:44:00,
2015-01-30 10:54:00,45.0,34.0,30.67,North,0,0.0,0.0,66,0.00,,,0.00,,2015-01-30 16:54:00,
2015-01-30 11:23:00,47.0,34.0,30.67,North,0,0.0,0.0,60,0.00,,,0.00,,2015-01-30 17:23:00,
2015-01-30 11:43:00,47.0,34.0,30.66,North,0,0.0,0.0,60,0.00,,,0.00,,2015-01-30 17:43:00,
2015-01-30 11:52:00,48.0,34.0,30.64,North,0,0.0,0.0,59,0.00,,,0.00,,2015-01-30 17:52:00,
2015-01-30 12:22:00,49.0,34.0,30.63,North,0,0.0,1.0,56,0.00,,,0.00,,2015-01-30 18:22:00,
2015-01-30 12:43:00,49.0,34.0,30.64,North,0,0.0,1.0,55,0.00,,,0.00,,2015-01-30 18:43:00,
2015-01-30 12:53:00,51.0,34.0,30.62,North,0,0.0,0.0,51,0.00,,,0.00,,2015-01-30 18:53:00,
2015-01-30 13:23:00,52.0,33.0,30.60,North,0,0.0,0.0,49,0.00,,,0.00,,2015-01-30 19:23:00,
2015-01-30 13:42:00,53.0,33.0,30.59,North,0,0.0,1.0,47,0.00,,,0.00,,2015-01-30 19:42:00,
2015-01-30 13:52:00,54.0,34.0,30.59,North,0,0.0,2.0,46,0.00,,,0.00,,2015-01-30 19:52:00,
2015-01-30 14:22:00,54.0,32.0,30.57,North,0,0.0,0.0,43,0.00,,,0.00,,2015-01-30 20:22:00,
2015-01-30 14:52:00,56.0,32.0,30.56,North,0,0.0,0.0,40,0.00,,,0.00,,2015-01-30 20:52:00,
2015-01-30 15:22:00,56.0,31.0,30.55,North,0,0.0,1.0,39,0.00,,,0.00,,2015-01-30 21:22:00,
2015-01-30 15:43:00,56.0,31.0,30.55,North,0,0.0,0.0,39,0.00,,,0.00,,2015-01-30 21:43:00,
2015-01-30 15:54:00,56.0,31.0,30.55,North,0,0.0,0.0,39,0.00,,,0.00,,2015-01-30 21:54:00,
2015-01-30 16:23:00,55.0,31.0,30.55,North,0,0.0,0.0,39,0.00,,,0.00,,2015-01-30 22:23:00,
2015-01-30 16:44:00,54.0,30.0,30.54,North,0,0.0,0.0,39,0.00,,,0.00,,2015-01-30 22:44:00,
2015-01-30 16:52:00,54.0,30.0,30.55,North,0,0.0,0.0,39,0.00,,,0.00,,2015-01-30 22:52:00,
2015-01-30 17:22:00,53.0,31.0,30.55,North,0,0.0,0.0,42,0.00,,,0.00,,2015-01-30 23:22:00,
2015-01-30 17:43:00,51.0,30.0,30.55,North,0,0.0,0.0,44,0.00,,,0.00,,2015-01-30 23:43:00,
2015-01-30 17:52:00,49.0,29.0,30.54,North,0,0.0,0.0,46,0.00,,,0.00,,2015-01-30 23:52:00,
2015-01-30 18:22:00,46.0,30.0,30.55,North,0,0.0,0.0,53,0.00,,,0.00,,2015-01-31 00:22:00,
2015-01-30 18:42:00,43.0,29.0,30.54,North,0,0.0,0.0,58,0.00,,,0.00,,2015-01-31 00:42:00,
2015-01-30 18:52:00,42.0,30.0,30.55,North,0,0.0,0.0,62,0.00,,,0.00,,2015-01-31 00:52:00,
2015-01-30 19:12:00,40.0,30.0,30.55,North,0,0.0,0.0,67,0.00,,,0.00,,2015-01-31 01:12:00,